STARLINK-1208, 45205

Orbit data source: Space-Track

STARLINK-1208, 45205 is a payload satellite owned by SpaceX/Seattle (US) in LEO that was launched on Mon, 17 Feb 2020 UTC via an FALCON 9 launch vehicle from the Air Force Eastern Test Range (AFETR). Payload-class satellites include a variety of spacecraft equipped with specific instruments for various scientific and technological missions. These include communications satellites like Starlink; space stations such as the ISS; scientific satellites like the Hubble; Earth observation satellites from companies like Planet Labs, Umbra, and HawkEye 360; GPS; miniature CubeSats for education and research; and military/defense satellites.

Loading next visibility...
Identifier
45205, 2020-012AD
Orbit
LEO
Country
Flag of USUS
Related business
Manufacturer
SpaceX/Seattle
Mission
Partially operational Commercial Communications
Bus & Motor
STARLINK, Unknown motor
Mass
260 kg wet, ~248 kg dry
Launch date (UTC)
2020-02-17 (6 years ago)
Launch vehicle
FALCON 9
Launch site
Air Force Eastern Test Range (AFETR)
Object type
Payload
Rocket body
Debris
Shape & HBR
Box + 1 Pan, 4.4 m
Radar Cross Section
13.562 m², Large (>1 m²)

Expand to show TLE details & history
Last TLE update: 10 hours ago

TLE from 10 hours ago
0 STARLINK-1208
1 45205U 20012AD  25258.58341435  .00405334  75368-4  11013-2 0  9996
2 45205  53.0388  42.1520 0001428  94.2747 284.2548 15.93678722  6062
Epoch: 2025-09-15T14:00Z
TLE epoch observation values (Epoch: 2025-09-15T14:00:06.999Z)
Latitude
14.70967°
Longitude
-151.33489°
Altitude
291.946 km
Speed
7.735 km/s
True Right ascension
03h 33m 55s
True Declination
14° 37' 10"
Sunlit
Object was in full shadow at epoch
Visualization orbit readout
Latitude
Unknown
Longitude
Unknown
Altitude
Unknown
Speed
Unknown
Apparent Right ascension
Unknown
Apparent Declination
Unknown
Sunlit
N/A
Visualization observer readout
Local Sidereal Time
16:48:34
Azimuth
Unknown
Elevation
Unknown
Doppler factor
Unknown
Orbital elements
Apogee altitude
293.234 km
Perigee altitude
291.329 km
Semi-major axis
6,670.419 km
Eccentricity
0.00014
Inclination
53.0388°
RAAN
42.152°
Arg. of periapsis
94.2747°
True anomaly
284.23894°
Mean anomaly
284.2548°
Eccentric anomaly
284.24687°
Mean motion
3.98395 °/min
Orbital period
90.36 mins
BSTAR
0.0011013
Loading maneuver chart data...
Computing Atmospheric mass density...

Documentation

Showing up to 5 results
|